Tracking 29892 objects as of 21-Nov-2024
HD Live streaming from Space Station
objects crossing your sky now

STARLINK-6236

Track STARLINK-6236 now!
10-day predictions
STARLINK-6236 is classified as:


NORAD ID: 56422
Int'l Code: 2023-061BA
Perigee: 565.2 km
Apogee: 567.3 km
Inclination: 43.0 °
Period: 95.8 minutes
Semi major axis: 6937 km
RCS: Unknown
Launch date: May 4, 2023
Source: United States (US)
Launch site: AIR FORCE EASTERN TEST RANGE (AFETR)
Your satellite tracking list
Your tracking list is empty




NASA's NSSDC Master Catalog

Two Line Element Set (TLE):
1 56422U 23061BA  24325.90329327  .00001435  00000-0  12133-3 0  9998
2 56422  43.0046 225.9899 0001498 249.4491 110.6190 15.02530228 85781
Source of the keplerian elements: AFSPC